******** Week 144 almanac for PRN-1 ******** ID: 1 Health: 0 Eccentricity: 0.01124477386 Time of Applicability(s): 147456 Orbital Inclination(rad): 0.986435933 Rate of Right Ascen(r/s): -7.668890868e-09 SQRT(A) (m 1/2): 5153.630371 Right Ascen at Week(rad): -1.284229541 Argument of Perigee(rad): 0.8828565022 Mean Anom(rad): 2.321195686 Af0(s): 0.0003640246948 Af1(s/s): -1.091394e-11 week: 144 ******** Week 144 almanac for PRN-2 ******** ID: 2 Health: 0 Eccentricity: 0.02066326141 Time of Applicability(s): 147456 Orbital Inclination(rad): 0.9647804386 Rate of Right Ascen(r/s): -7.840326581e-09 SQRT(A) (m 1/2): 5153.625977 Right Ascen at Week(rad): -1.372783601 Argument of Perigee(rad): -1.459495086 Mean Anom(rad): 2.486310592 Af0(s): -0.0005124985352 Af1(s/s): 0 week: 144 ******** Week 144 almanac for PRN-3 ******** ID: 3 Health: 0 Eccentricity: 0.00385761261 Time of Applicability(s): 147456 Orbital Inclination(rad): 0.9724503426 Rate of Right Ascen(r/s): -7.806039438e-09 SQRT(A) (m 1/2): 5153.651367 Right Ascen at Week(rad): -0.2488112345 Argument of Perigee(rad): 0.9793081659 Mean Anom(rad): 1.152046911 Af0(s): -5.803292236e-05 Af1(s/s): -1.455192e-11 week: 144 ******** Week 144 almanac for PRN-4 ******** ID: 4 Health: 0 Eccentricity: 0.00164604187 Time of Applicability(s): 147456 Orbital Inclination(rad): 0.9609215182 Rate of Right Ascen(r/s): -7.886042771e-09 SQRT(A) (m 1/2): 5153.607422 Right Ascen at Week(rad): 0.83203852 Argument of Perigee(rad): -3.109677915 Mean Anom(rad): -2.135607604 Af0(s): -0.0001545032349 Af1(s/s): 0 week: 144 ******** Week 144 almanac for PRN-5 ******** ID: 5 Health: 0 Eccentricity: 0.005896568298 Time of Applicability(s): 147456 Orbital Inclination(rad): 0.9594234901 Rate of Right Ascen(r/s): -7.931758961e-09 SQRT(A) (m 1/2): 5153.593262 Right Ascen at Week(rad): -0.2887179544 Argument of Perigee(rad): 1.013898759 Mean Anom(rad): -1.317276416 Af0(s): -5.351087646e-05 Af1(s/s): 0 week: 144 ******** Week 144 almanac for PRN-6 ******** ID: 6 Health: 0 Eccentricity: 0.002608776093 Time of Applicability(s): 147456 Orbital Inclination(rad): 0.9858187454 Rate of Right Ascen(r/s): -7.646032773e-09 SQRT(A) (m 1/2): 5153.606934 Right Ascen at Week(rad): -1.292498657 Argument of Perigee(rad): -1.004337969 Mean Anom(rad): 2.693525705 Af0(s): 0.0001318930054 Af1(s/s): 1.091394e-11 week: 144 ******** Week 144 almanac for PRN-7 ******** ID: 7 Health: 0 Eccentricity: 0.01542043686 Time of Applicability(s): 147456 Orbital Inclination(rad): 0.9506630217 Rate of Right Ascen(r/s): -7.863184676e-09 SQRT(A) (m 1/2): 5153.652832 Right Ascen at Week(rad): 1.851608813 Argument of Perigee(rad): -2.29682127 Mean Anom(rad): 1.66155099 Af0(s): 0.0002374074097 Af1(s/s): 3.637979e-12 week: 144 ******** Week 144 almanac for PRN-8 ******** ID: 8 Health: 0 Eccentricity: 0.007102012634 Time of Applicability(s): 147456 Orbital Inclination(rad): 0.9652058786 Rate of Right Ascen(r/s): -8.023191341e-09 SQRT(A) (m 1/2): 5153.654297 Right Ascen at Week(rad): -2.363681636 Argument of Perigee(rad): 0.07647583324 Mean Anom(rad): -1.658314126 Af0(s): -4.069841309e-05 Af1(s/s): 0 week: 144 ******** Week 144 almanac for PRN-9 ******** ID: 9 Health: 0 Eccentricity: 0.00234413147 Time of Applicability(s): 147456 Orbital Inclination(rad): 0.9539347151 Rate of Right Ascen(r/s): -7.977475151e-09 SQRT(A) (m 1/2): 5153.584473 Right Ascen at Week(rad): 0.7793671025 Argument of Perigee(rad): 1.859046897 Mean Anom(rad): -1.333490323 Af0(s): -0.000283381543 Af1(s/s): 0 week: 144 ******** Week 144 almanac for PRN-10 ******** ID: 10 Health: 0 Eccentricity: 0.007422924042 Time of Applicability(s): 147456 Orbital Inclination(rad): 0.9722825634 Rate of Right Ascen(r/s): -7.806039438e-09 SQRT(A) (m 1/2): 5153.628418 Right Ascen at Week(rad): -0.2516091765 Argument of Perigee(rad): -2.539732896 Mean Anom(rad): 0.31712244 Af0(s): -0.0002291169922 Af1(s/s): -1.091394e-11 week: 144 ******** Week 144 almanac for PRN-11 ******** ID: 11 Health: 255 Eccentricity: 0.0003099441528 Time of Applicability(s): 147456 Orbital Inclination(rad): 0.9615566821 Rate of Right Ascen(r/s): -7.897471818e-09 SQRT(A) (m 1/2): 5153.710449 Right Ascen at Week(rad): -1.239608152 Argument of Perigee(rad): 2.812151181 Mean Anom(rad): -1.760889354 Af0(s): -2.411757812e-05 Af1(s/s): -3.637979e-11 week: 144 ******** Week 144 almanac for PRN-12 ******** ID: 12 Health: 0 Eccentricity: 0.008558750153 Time of Applicability(s): 147456 Orbital Inclination(rad): 0.9710661646 Rate of Right Ascen(r/s): -7.886042771e-09 SQRT(A) (m 1/2): 5153.574219 Right Ascen at Week(rad): 2.963895062 Argument of Perigee(rad): 1.236495999 Mean Anom(rad): 0.9943292683 Af0(s): -0.0001213415649 Af1(s/s): -7.275958e-12 week: 144 ******** Week 144 almanac for PRN-13 ******** ID: 13 Health: 0 Eccentricity: 0.005787849426 Time of Applicability(s): 147456 Orbital Inclination(rad): 0.9683277692 Rate of Right Ascen(r/s): -7.794610391e-09 SQRT(A) (m 1/2): 5153.622559 Right Ascen at Week(rad): 0.9316528955 Argument of Perigee(rad): 0.973426533 Mean Anom(rad): -2.281509176 Af0(s): 0.0001921869507 Af1(s/s): 7.275958e-12 week: 144 ******** Week 144 almanac for PRN-14 ******** ID: 14 Health: 0 Eccentricity: 0.001315116882 Time of Applicability(s): 147456 Orbital Inclination(rad): 0.9544799973 Rate of Right Ascen(r/s): -8.046049436e-09 SQRT(A) (m 1/2): 5153.593262 Right Ascen at Week(rad): 2.933181366 Argument of Perigee(rad): 3.046721036 Mean Anom(rad): 1.028525505 Af0(s): -5.426455078e-05 Af1(s/s): -3.637979e-12 week: 144 ******** Week 144 almanac for PRN-15 ******** ID: 15 Health: 0 Eccentricity: 0.01391792297 Time of Applicability(s): 147456 Orbital Inclination(rad): 0.9298404309 Rate of Right Ascen(r/s): -8.240343243e-09 SQRT(A) (m 1/2): 5153.659668 Right Ascen at Week(rad): 0.6742564619 Argument of Perigee(rad): 1.069942612 Mean Anom(rad): -2.675029926 Af0(s): -7.310640869e-05 Af1(s/s): 3.637979e-12 week: 144 ******** Week 144 almanac for PRN-16 ******** ID: 16 Health: 0 Eccentricity: 0.01261663437 Time of Applicability(s): 147456 Orbital Inclination(rad): 0.9710421961 Rate of Right Ascen(r/s): -7.897471818e-09 SQRT(A) (m 1/2): 5153.538086 Right Ascen at Week(rad): 2.982526412 Argument of Perigee(rad): 0.6958037238 Mean Anom(rad): -0.8624211517 Af0(s): -0.0003587489746 Af1(s/s): -3.637979e-12 week: 144 ******** Week 144 almanac for PRN-17 ******** ID: 17 Health: 0 Eccentricity: 0.01373672485 Time of Applicability(s): 147456 Orbital Inclination(rad): 0.9802221124 Rate of Right Ascen(r/s): -7.874613723e-09 SQRT(A) (m 1/2): 5153.690918 Right Ascen at Week(rad): -2.282315115 Argument of Perigee(rad): -1.51057747 Mean Anom(rad): -1.754923457 Af0(s): 0.0004424068237 Af1(s/s): 3.637979e-12 week: 144 ******** Week 144 almanac for PRN-18 ******** ID: 18 Health: 0 Eccentricity: 0.002092838287 Time of Applicability(s): 147456 Orbital Inclination(rad): 0.9702272688 Rate of Right Ascen(r/s): -7.794610391e-09 SQRT(A) (m 1/2): 5153.584473 Right Ascen at Week(rad): -1.275878035 Argument of Perigee(rad): 3.105057996 Mean Anom(rad): 2.512045217 Af0(s): 0.0002080141113 Af1(s/s): -7.275958e-12 week: 144 ******** Week 144 almanac for PRN-19 ******** ID: 19 Health: 0 Eccentricity: 0.00892162323 Time of Applicability(s): 147456 Orbital Inclination(rad): 0.9789278161 Rate of Right Ascen(r/s): -7.886042771e-09 SQRT(A) (m 1/2): 5153.630859 Right Ascen at Week(rad): -2.237390001 Argument of Perigee(rad): 1.994768244 Mean Anom(rad): 0.6404553301 Af0(s): 8.215050049e-05 Af1(s/s): 3.637979e-12 week: 144 ******** Week 144 almanac for PRN-20 ******** ID: 20 Health: 0 Eccentricity: 0.005318641663 Time of Applicability(s): 147456 Orbital Inclination(rad): 0.9415729871 Rate of Right Ascen(r/s): -8.103194673e-09 SQRT(A) (m 1/2): 5153.666504 Right Ascen at Week(rad): -0.4020449048 Argument of Perigee(rad): 3.096534216 Mean Anom(rad): -2.894279823 Af0(s): 0.0004084914795 Af1(s/s): 0 week: 144 ******** Week 144 almanac for PRN-21 ******** ID: 21 Health: 0 Eccentricity: 0.02449035645 Time of Applicability(s): 147456 Orbital Inclination(rad): 0.9590160264 Rate of Right Ascen(r/s): -7.874613723e-09 SQRT(A) (m 1/2): 5153.549805 Right Ascen at Week(rad): -1.374185755 Argument of Perigee(rad): -1.028825485 Mean Anom(rad): -1.600202994 Af0(s): 0.0001228489136 Af1(s/s): 0 week: 144 ******** Week 144 almanac for PRN-22 ******** ID: 22 Health: 255 Eccentricity: 0.006875514984 Time of Applicability(s): 147456 Orbital Inclination(rad): 0.93831927 Rate of Right Ascen(r/s): -8.114623721e-09 SQRT(A) (m 1/2): 5153.579102 Right Ascen at Week(rad): -0.3562479383 Argument of Perigee(rad): -0.8588685781 Mean Anom(rad): -2.863933144 Af0(s): -0.0003323703735 Af1(s/s): 7.275958e-12 week: 144 ******** Week 144 almanac for PRN-23 ******** ID: 23 Health: 0 Eccentricity: 0.001955986023 Time of Applicability(s): 147456 Orbital Inclination(rad): 0.9673210943 Rate of Right Ascen(r/s): -7.863184676e-09 SQRT(A) (m 1/2): 5153.646484 Right Ascen at Week(rad): -0.2762742094 Argument of Perigee(rad): 2.905895159 Mean Anom(rad): 1.671702003 Af0(s): 9.797766113e-06 Af1(s/s): -3.637979e-12 week: 144 ******** Week 144 almanac for PRN-24 ******** ID: 24 Health: 0 Eccentricity: 0.01226568222 Time of Applicability(s): 147456 Orbital Inclination(rad): 0.9341128071 Rate of Right Ascen(r/s): -8.034620388e-09 SQRT(A) (m 1/2): 5153.643066 Right Ascen at Week(rad): 1.769448338 Argument of Perigee(rad): 0.800040265 Mean Anom(rad): 2.628063374 Af0(s): 0.0002193192261 Af1(s/s): 0 week: 144 ******** Week 144 almanac for PRN-25 ******** ID: 25 Health: 0 Eccentricity: 0.0103392601 Time of Applicability(s): 147456 Orbital Inclination(rad): 0.95845876 Rate of Right Ascen(r/s): -7.988904198e-09 SQRT(A) (m 1/2): 5153.67627 Right Ascen at Week(rad): 2.887642435 Argument of Perigee(rad): 0.9709016066 Mean Anom(rad): 0.7666600791 Af0(s): 0.0002125361572 Af1(s/s): 7.275958e-12 week: 144 ******** Week 144 almanac for PRN-26 ******** ID: 26 Health: 0 Eccentricity: 0.00675201416 Time of Applicability(s): 147456 Orbital Inclination(rad): 0.9392899923 Rate of Right Ascen(r/s): -8.183198006e-09 SQRT(A) (m 1/2): 5153.626953 Right Ascen at Week(rad): 2.841341382 Argument of Perigee(rad): 0.3459220305 Mean Anom(rad): 0.1188520525 Af0(s): 0.0001371687256 Af1(s/s): 3.637979e-12 week: 144 ******** Week 144 almanac for PRN-27 ******** ID: 27 Health: 0 Eccentricity: 0.009990692139 Time of Applicability(s): 147456 Orbital Inclination(rad): 0.9738764653 Rate of Right Ascen(r/s): -7.943188008e-09 SQRT(A) (m 1/2): 5153.601074 Right Ascen at Week(rad): -2.344547323 Argument of Perigee(rad): 0.628623155 Mean Anom(rad): -1.734965977 Af0(s): 4.748148193e-05 Af1(s/s): 2.182787e-11 week: 144 ******** Week 144 almanac for PRN-29 ******** ID: 29 Health: 0 Eccentricity: 0.001756191254 Time of Applicability(s): 147456 Orbital Inclination(rad): 0.9822055016 Rate of Right Ascen(r/s): -7.863184676e-09 SQRT(A) (m 1/2): 5153.720703 Right Ascen at Week(rad): -2.269379642 Argument of Perigee(rad): 2.298937984 Mean Anom(rad): -1.632894087 Af0(s): -0.0003677930664 Af1(s/s): -3.637979e-12 week: 144 ******** Week 144 almanac for PRN-30 ******** ID: 30 Health: 0 Eccentricity: 0.005411148071 Time of Applicability(s): 147456 Orbital Inclination(rad): 0.9358445276 Rate of Right Ascen(r/s): -8.011762293e-09 SQRT(A) (m 1/2): 5153.539062 Right Ascen at Week(rad): 1.865301913 Argument of Perigee(rad): -2.753174563 Mean Anom(rad): 1.67132038 Af0(s): -0.0003994473877 Af1(s/s): -3.637979e-12 week: 144 ******** Week 144 almanac for PRN-31 ******** ID: 31 Health: 0 Eccentricity: 0.01046037674 Time of Applicability(s): 147456 Orbital Inclination(rad): 0.9549174215 Rate of Right Ascen(r/s): -7.806039438e-09 SQRT(A) (m 1/2): 5153.621094 Right Ascen at Week(rad): 1.869564178 Argument of Perigee(rad): 0.3646780915 Mean Anom(rad): 1.209625869 Af0(s): -0.0001258636108 Af1(s/s): 0 week: 144 ******** Week 144 almanac for PRN-32 ******** ID: 32 Health: 0 Eccentricity: 0.005403518677 Time of Applicability(s): 147456 Orbital Inclination(rad): 0.9577936355 Rate of Right Ascen(r/s): -7.920329913e-09 SQRT(A) (m 1/2): 5153.705078 Right Ascen at Week(rad): 0.7904113148 Argument of Perigee(rad): -2.377486714 Mean Anom(rad): -1.047376316 Af0(s): -3.843739014e-05 Af1(s/s): -7.275958e-12 week: 144